Weather in Ulcinj

Montenegro     41°55′44″N   19°12′50″E
temp.,
°C
wind,
m/s
gust,
m/s
humid.,
%
clouds,
%
prec.,
mm/h
press.,
hPa
HPBL,
m
10 april, sat
sat1023:00+7n225615 0.0 102777
02:00+6nne2261100 0.0 102753
05:00+6ne22683 0.0 102658
08:00+8ne226578 0.0 1027149
11:00+11sse3255100 0.0 1027817
14:00+12sw325531 0.0 1026882
17:00+11sw2255100 0.0 1025625
20:00+8w11635 0.0 102590
11 april, sun
sun1123:00+7nne11650 0.0 102653
02:00+7nne226383 0.0 102550
05:00+6ne22695 0.0 102455
08:00+9ene33645 0.0 1024170
11:00+13se22496 0.0 1025617
14:00+13ssw3250100 0.0 1025672
17:00+13ssw22507 0.0 1024385
20:00+10ne016364 0.0 102550
12 april, mon
mon1223:00+9ene226197 0.0 102450
02:00+9nne116170 0.0 102439
05:00+9ne226378 0.0 102345
08:00+11ene236156 0.0 1023114
11:00+14se22566 0.0 1023494
14:00+15sw345652 0.0 1023568
17:00+14ssw2362100 0.0 1022380
20:00+11ese2273100 0.0 102173
13 april, tue
tue1323:00+11ene2271100 0.0 102146
02:00+11ene2267100 0.0 102156
05:00+11ne237343 0.0 101957
08:00+12nne2268100 0.0 101968
11:00+12e3473100 0.2 1019274
14:00+13sse2378100 1.1 1018500
17:00+11e2490100 1.3 1016187
20:00+11ssw3595100 10.7 1014369
14 april, wed
wed1423:00+11ese248767 9.8 1015198
02:00+9nnw229150 13.5 101598
05:00+9w028253 1.3 1015245
08:00+9n128898 3.2 1016187
11:00+12w347232 1.8 1016909
14:00+11w667477 4.0 10171053
17:00+11w556928 0.4 10171055
20:00+9wsw456875 0.6 1018525